Location: Unnamed
(47.6264°N, 122.3366°W)
Time: 07:43:46
(UTC-07:00)

X-37B - Pass Details

Date: 22 June 2021
Orbit: 383 x 392 km, 45.0° (Epoch: 01 July)

Event Time Altitude Azimuth Distance (km) Brightness Sun altitude
Rises 23:43:00 0° 245° (WSW) 2,251 4.4 -16.2°
Reaches altitude 10° 23:45:08 10° 237° (WSW) 1,399 3.3 -16.3°
Enters shadow 23:45:59 16° 231° (SW) 1,081 2.6 -16.4°
